Temperature
6 5 5 5 6 6 6 6 6 7 8 7 7 7 8 8 8 8 8 9 9 10 10 11 11 11 12 12 12 12 12 12 12 12 13 13 13 13 13 13 13 13 13 13
5 5 6 7 7 7 6 6 6 7 8 8 7 7 7 8 8 8 8 8 9 9 10 10 10 11 11 11 12 12 12 12 12 12 12 13 13 13 13 13 13 13 13 13
5 6 8 8 7 7 7 6 6 7 7 7 7 7 7 8 8 8 8 8 8 9 9 9 10 10 11 11 11 11 11 11 12 12 12 12 12 12 12 12 12 13 13 13
6 7 7 7 7 7 7 8 7 7 7 6 7 6 6 7 7 7 7 8 8 8 9 9 9 10 10 10 11 11 11 11 11 11 11 12 12 12 12 12 12 12 12 12
6 7 7 7 8 8 7 8 8 7 6 6 6 6 6 7 7 7 7 7 7 8 8 9 9 9 10 10 10 10 10 10 11 11 11 11 11 11 11 11 12 12 12 12
6 7 7 7 8 8 8 8 7 7 6 6 6 6 6 6 6 6 6 6 7 7 8 8 8 9 9 9 9 10 10 10 10 10 11 11 11 11 11 11 11 11 11 12
6 7 7 8 7 8 7 6 6 6 5 6 7 6 6 7 7 6 6 6 6 7 7 7 8 8 8 9 9 9 9 10 10 10 10 10 10 10 10 11 11 11 11 11
5 6 7 8 7 7 7 7 6 6 6 6 6 6 6 7 7 7 6 6 6 6 7 7 7 8 8 8 8 9 9 9 9 9 9 10 10 10 10 10 10 10 11 11
5 6 8 8 8 8 7 6 7 6 6 5 6 6 7 7 6 6 6 6 6 6 6 6 7 7 7 7 7 8 8 8 9 9 9 9 9 10 10 10 10 10 10 10
6 6 7 8 8 8 7 7 6 6 6 6 6 6 6 6 6 6 5 6 5 5 6 6 6 6 6 7 7 7 7 8 8 8 8 9 9 9 9 9 9 9 10 10
7 6 6 7 7 6 7 7 6 5 6 6 6 6 6 6 5 5 5 5 5 5 5 5 5 6 6 6 7 7 7 7 8 8 8 8 8 8 9 9 9 9 9 9
6 5 5 6 7 7 7 7 6 6 5 5 5 6 6 5 6 5 5 5 5 5 5 5 5 5 6 6 6 7 7 7 7 7 7 8 8 8 8 8 8 8 8 8
7 5 5 6 6 6 7 7 6 5 4 4 5 5 6 5 5 6 5 5 5 5 5 5 5 5 5 5 6 6 6 7 7 7 7 7 7 7 7 7 7 8 8 8
7 5 5 6 6 6 6 6 6 5 4 4 5 5 5 5 5 5 5 5 5 5 5 5 5 5 5 5 5 5 6 6 6 6 6 6 6 6 6 6 7 7 7 7
6 5 6 6 6 6 6 6 6 5 5 5 5 5 5 5 5 5 5 5 4 4 4 4 4 4 5 5 5 5 5 5 5 6 6 6 6 6 6 6 6 6 6 6
5 5 5 5 6 6 6 6 6 6 6 5 5 5 5 5 5 5 5 4 4 4 4 4 4 4 4 5 5 5 5 5 5 5 5 5 5 5 5 6 6 6 6 6
5 5 5 4 5 5 5 5 5 6 6 6 5 5 5 4 4 4 5 4 4 4 4 4 4 4 4 4 4 4 4 4 4 4 4 4 4 4 4 5 5 5 5 5
5 4 3 3 4 5 6 6 6 6 6 6 6 5 5 5 5 5 5 5 4 4 4 4 4 4 4 3 4 4 4 4 4 4 4 3 4 4 3 3 4 4 4 4
4 4 3 3 4 4 6 6 6 6 6 6 5 5 5 5 4 4 5 5 5 4 4 4 4 3 3 3 3 3 3 3 3 3 3 3 3 3 3 3 3 3 3 3
4 3 3 3 4 5 6 7 7 6 5 6 5 4 4 4 3 3 5 4 4 4 4 3 3 3 3 3 3 3 3 3 3 3 2 2 2 2 2 2 3 2 2 2
4 3 3 3 3 4 5 6 6 6 6 6 6 6 5 4 5 5 5 4 4 4 3 3 3 3 3 2 3 3 2 2 2 2 2 2 2 2 2 2 2 2 2 2
3 2 2 2 3 4 5 5 5 5 7 7 7 6 6 6 5 5 4 4 4 3 3 3 3 2 2 2 2 2 2 2 2 2 2 2 2 1 1 1 1 1 1 1
2 3 2 3 4 5 6 7 7 7 7 7 7 7 6 6 5 5 4 4 3 3 3 3 3 2 2 2 2 2 2 1 1 1 1 1 1 1 1 1 1 1 1 1
2 3 2 3 3 5 6 7 7 7 7 7 7 7 6 5 5 4 4 4 3 3 3 2 2 2 2 2 1 1 1 1 1 1 1 1 1 1 0 0 0 -0 -0 -0
3 3 2 3 3 5 6 7 7 7 7 7 6 6 6 5 5 4 4 4 3 3 3 2 2 2 2 1 1 1 1 1 1 0 0 0 0 0 0 -0 -0 -1 -1 -1
2 3 3 4 5 4 6 8 7 7 7 7 6 6 5 5 5 4 4 3 3 3 2 2 2 2 1 1 1 1 0 0 -0 -0 -0 -0 -0 -0 -0 -1 -0 -1 -1 -1
Wind_Speed
3 2 4 7 8 7 5 5 8 8 6 4 6 9 12 9 5 4 4 4 5 6 5 4 4 4 3 4 6 7 8 8 7 5 6 6 6 6 5 6 8 10 11 12
1 5 8 7 6 7 6 7 8 7 3 3 4 8 9 7 4 3 3 3 3 3 3 1 1 2 3 3 4 5 7 7 7 6 5 5 6 6 6 6 7 9 9 10
5 5 4 4 5 5 6 6 5 5 6 3 3 6 7 5 5 6 5 3 2 2 2 2 1 0 1 2 3 4 5 6 6 6 4 4 4 4 4 5 6 7 9 9
4 5 4 4 5 4 5 5 5 5 4 3 3 3 7 7 8 9 8 7 5 4 3 2 2 2 1 0 1 2 4 4 4 5 5 7 6 6 6 5 5 6 7 8
3 2 2 3 4 3 4 4 4 4 2 2 2 1 5 7 7 9 8 8 7 6 5 4 3 2 2 2 2 1 3 3 3 3 4 5 5 4 3 4 5 5 6 7
4 3 2 3 3 3 3 2 2 1 1 2 3 1 4 5 6 7 8 8 8 7 7 6 5 4 4 3 3 3 2 2 3 3 2 4 5 5 5 4 4 4 4 5
4 3 2 1 3 4 2 2 3 4 3 1 2 1 2 5 5 5 6 8 8 8 8 8 7 6 6 5 5 4 4 4 3 3 1 2 3 5 5 5 5 4 3 3
3 4 3 1 1 1 2 1 3 1 0 2 4 1 2 4 5 5 6 7 9 10 9 9 8 7 6 6 5 5 5 4 4 3 2 1 1 1 2 3 4 4 3 4
0 3 4 3 2 1 1 1 1 2 1 1 2 2 2 5 7 8 9 10 10 9 9 9 8 8 7 6 6 5 5 5 4 3 3 3 3 2 1 0 1 2 2 3
1 2 4 3 3 3 1 1 2 2 2 1 2 2 2 4 6 7 7 8 8 8 8 9 8 7 6 6 6 6 5 4 4 4 3 3 3 2 2 1 1 1 2 2
1 0 4 3 3 3 3 2 2 2 2 3 1 2 1 1 1 3 4 5 6 7 7 7 7 7 7 7 6 6 6 6 5 4 3 3 3 2 2 1 1 2 2 2
1 2 2 3 4 2 1 0 1 2 0 1 2 2 2 1 2 3 3 4 5 6 6 7 7 8 8 9 8 7 6 5 4 4 3 3 3 3 3 3 3 3 3 2
1 3 2 5 5 5 2 2 1 3 2 2 2 2 2 2 3 3 3 3 4 5 7 8 9 9 9 9 8 8 8 6 5 5 5 5 5 5 5 4 4 4 3 3
3 2 3 3 3 2 3 3 1 3 2 2 3 3 2 0 1 2 2 3 3 5 6 7 8 8 9 9 9 9 9 8 7 6 6 6 6 5 5 5 5 4 4 3
3 1 1 3 4 2 2 3 1 2 4 4 4 5 5 4 3 1 1 2 4 5 6 6 7 7 8 9 9 8 8 8 8 8 8 7 6 6 5 6 6 5 5 5
2 1 2 4 3 2 3 4 3 2 2 3 3 3 4 3 2 2 1 2 3 3 4 5 6 7 8 8 8 8 9 8 8 8 7 7 7 8 7 7 7 7 6 6
1 1 1 3 5 5 5 5 5 3 4 6 6 5 4 4 4 3 2 2 1 2 2 4 5 5 6 6 7 7 7 7 8 8 8 7 7 8 8 8 7 7 7 6
2 2 1 1 4 3 6 3 4 4 3 4 4 4 6 6 4 2 2 3 1 1 1 2 3 4 5 5 6 6 6 7 7 7 7 7 7 7 7 7 7 7 6 6
3 4 2 1 2 6 6 3 4 4 4 5 6 5 5 5 3 1 1 2 2 1 1 1 2 2 3 5 5 5 6 6 7 7 7 7 7 7 7 7 7 6 6 6
3 3 3 2 1 5 5 2 3 3 3 5 8 8 7 6 3 4 2 2 2 2 2 1 2 3 3 4 4 5 5 6 6 6 7 7 6 6 6 6 6 6 5 5
1 1 3 3 4 7 6 2 4 3 6 4 8 9 9 7 6 4 4 3 2 2 1 1 1 2 2 3 3 4 4 5 5 5 6 6 6 6 6 5 5 6 5 6
7 5 5 5 5 8 4 6 7 8 2 4 6 7 7 6 5 5 5 4 3 2 2 1 1 1 3 3 3 4 5 5 5 5 6 6 6 6 6 6 6 6 6 6
7 8 6 8 9 5 5 7 5 4 4 4 6 6 8 7 5 5 5 5 4 3 2 1 1 1 2 3 2 3 5 5 5 5 5 6 6 6 5 5 6 6 5 5
5 4 4 5 8 7 7 6 4 5 5 5 6 7 8 7 7 6 5 5 4 3 3 1 1 1 2 3 2 3 4 4 4 5 5 5 5 5 5 5 4 4 5 6
7 5 4 6 7 5 6 8 8 5 5 5 5 6 8 8 7 7 6 5 5 4 3 2 2 2 3 3 3 4 4 3 4 4 5 5 5 4 4 4 4 5 4 5
7 8 8 9 8 7 7 6 6 7 7 8 7 5 6 7 8 7 6 5 5 4 3 3 3 3 3 3 3 4 4 3 3 4 4 4 4 4 4 5 6 7 7 10
Wind_Direction
177 166 221 222 214 223 241 263 275 275 276 287 283 294 304 313 314 285 276 280 275 268 260 241 234 225 204 178 173 177 178 178 168 172 181 185 191 190 191 193 191 193 195 195
166 244 241 234 233 240 250 271 280 289 299 290 297 311 310 318 327 309 297 291 280 306 331 324 249 206 181 174 175 173 182 183 180 181 184 186 184 186 190 191 190 196 196 197
214 253 258 223 243 253 260 247 260 280 310 298 300 332 349 360 20 21 20 355 352 337 337 323 293 220 143 162 176 183 185 188 189 179 168 179 177 168 182 191 199 201 201 202
247 266 259 252 251 235 272 239 245 286 317 324 357 339 339 358 17 18 13 12 7 2 13 20 33 40 42 190 138 143 173 178 187 172 170 179 190 193 197 193 204 205 205 204
268 290 297 272 265 234 243 259 256 273 286 319 354 103 321 350 11 7 6 10 8 10 21 37 54 69 45 40 89 124 148 147 156 157 168 189 193 194 183 182 199 206 212 211
262 279 271 264 279 246 261 324 314 330 81 0 335 119 334 345 342 354 6 9 15 18 25 34 40 53 55 52 70 81 98 106 111 124 145 174 180 176 178 186 198 208 213 214
331 315 298 287 335 341 30 55 27 17 21 325 341 76 319 329 353 11 14 12 12 19 29 35 35 39 44 48 56 66 69 66 76 91 109 168 182 180 187 192 197 202 207 219
8 328 295 279 224 290 315 128 137 148 225 322 358 16 315 345 13 27 30 27 28 30 33 35 31 31 37 45 48 57 59 55 57 60 42 80 112 163 185 195 195 199 206 212
98 302 294 261 247 166 342 351 182 132 77 36 340 334 338 10 19 25 29 33 32 30 32 31 27 28 32 39 38 42 47 46 43 46 45 46 36 40 49 77 209 217 218 210
192 297 309 316 20 360 178 181 71 94 117 51 328 322 318 343 3 15 25 31 29 27 27 26 24 26 29 33 34 36 36 41 45 43 47 42 28 18 29 41 357 304 266 228
59 76 327 9 22 327 357 24 65 98 132 147 214 289 300 285 16 35 28 31 34 30 26 23 22 24 24 25 32 34 26 29 34 35 38 40 33 23 28 19 338 312 295 266
359 112 328 300 291 262 235 295 126 129 10 117 144 276 334 128 85 76 52 39 34 31 27 25 26 28 29 28 28 30 26 25 23 29 38 38 35 32 28 13 349 338 318 301
34 88 21 348 343 356 354 332 44 121 110 126 146 250 347 55 61 58 58 44 38 31 29 28 26 25 24 22 23 28 26 25 25 34 43 40 32 27 18 2 346 343 332 325
96 92 162 196 243 273 300 317 358 111 129 174 206 204 256 259 92 40 45 42 40 37 32 28 23 19 19 17 20 23 21 20 26 34 40 36 26 18 8 359 351 349 346 342
85 92 276 263 275 263 261 276 286 153 178 182 202 192 216 212 187 157 86 54 46 38 31 26 20 16 16 15 15 18 17 19 26 31 30 25 18 13 10 6 359 0 0 353
58 113 358 323 312 315 292 275 246 217 191 178 175 231 219 189 141 116 106 84 58 40 26 22 21 18 16 12 10 13 13 14 24 29 22 16 16 12 7 2 1 2 359 353
48 104 48 301 318 349 298 254 206 194 187 173 197 215 170 163 169 178 176 125 89 51 30 24 18 13 9 7 9 11 7 12 21 20 15 12 10 6 360 358 1 359 353 349
144 108 120 319 7 273 256 269 187 180 221 202 191 183 173 174 169 166 161 152 140 84 34 17 13 11 5 4 8 8 12 17 18 13 6 0 359 357 353 353 352 349 346 344
156 144 128 98 306 284 287 249 181 178 256 210 182 178 172 149 104 349 270 161 167 164 112 27 13 13 6 3 3 13 15 13 13 6 357 352 351 349 347 346 344 341 340 336
93 112 128 150 232 247 254 227 159 109 273 223 180 176 172 147 175 241 215 159 141 116 95 66 30 25 16 357 3 20 10 6 0 351 347 347 349 348 345 341 340 336 336 330
131 128 168 192 238 264 253 182 115 168 240 201 177 176 172 183 200 186 155 154 151 137 124 101 69 29 354 349 10 12 3 352 337 338 343 347 348 346 341 342 340 339 339 334
183 180 194 178 213 256 216 149 186 218 219 165 171 175 173 176 152 146 154 160 159 155 152 136 95 6 347 355 9 359 345 332 337 344 346 344 342 343 345 343 342 343 341 339
201 195 192 199 219 245 204 206 217 183 182 186 176 178 165 163 169 167 170 173 176 172 171 161 137 339 339 347 0 338 321 328 337 342 339 336 337 340 340 340 338 338 340 340
259 197 200 250 257 248 237 235 228 198 195 192 178 170 166 172 177 177 177 181 184 189 188 184 173 288 315 320 319 303 313 328 338 335 329 329 332 332 333 334 331 334 336 335
233 197 214 252 266 274 254 226 217 208 187 174 175 179 178 172 180 185 187 189 191 194 198 185 195 240 275 296 304 310 320 330 329 324 321 322 322 321 327 329 325 326 318 321
205 193 198 231 225 207 236 222 193 186 194 187 178 182 184 182 187 187 193 195 192 194 190 193 214 240 267 286 297 307 314 319 317 317 317 315 317 321 325 326 327 329 327 327
Height
1486 1489 1488 1486 1484 1484 1484 1484 1482 1476 1472 1471 1468 1463 1457 1454 1451 1449 1447 1446 1445 1445 1446 1447 1448 1449 1451 1453 1456 1459 1462 1465 1468 1471 1474 1476 1479 1483 1487 1491 1494 1497 1500 1503
1488 1486 1482 1480 1480 1481 1481 1482 1479 1473 1469 1469 1466 1462 1456 1452 1450 1448 1446 1445 1445 1444 1443 1444 1445 1447 1447 1449 1451 1455 1458 1461 1464 1467 1470 1472 1475 1479 1482 1486 1489 1493 1496 1499
1485 1481 1477 1478 1478 1479 1478 1479 1476 1473 1469 1467 1466 1462 1457 1452 1450 1448 1446 1445 1444 1443 1442 1442 1442 1442 1443 1446 1448 1451 1454 1457 1460 1462 1465 1469 1472 1474 1477 1480 1484 1488 1491 1494
1482 1478 1476 1476 1476 1476 1476 1472 1471 1471 1472 1472 1470 1470 1462 1457 1453 1450 1448 1445 1444 1442 1441 1440 1440 1441 1442 1443 1445 1448 1451 1453 1456 1459 1461 1464 1466 1469 1472 1475 1479 1483 1486 1489
1481 1476 1475 1475 1473 1472 1472 1469 1469 1470 1472 1474 1471 1473 1468 1460 1457 1454 1451 1448 1445 1443 1441 1440 1440 1441 1441 1442 1444 1446 1448 1450 1452 1455 1458 1460 1462 1465 1468 1471 1475 1478 1481 1484
1479 1475 1475 1473 1471 1470 1469 1469 1469 1471 1473 1476 1473 1474 1471 1466 1461 1458 1454 1450 1447 1445 1443 1442 1441 1441 1442 1442 1443 1444 1445 1446 1449 1452 1455 1457 1458 1461 1464 1467 1470 1472 1475 1479
1479 1475 1473 1472 1472 1470 1470 1474 1479 1480 1482 1478 1472 1472 1472 1466 1462 1459 1456 1452 1449 1446 1444 1443 1442 1442 1442 1442 1442 1443 1444 1445 1447 1450 1452 1453 1455 1458 1460 1462 1465 1467 1470 1472
1485 1482 1475 1472 1473 1472 1472 1474 1480 1481 1480 1479 1474 1474 1472 1467 1464 1461 1458 1455 1451 1448 1446 1445 1444 1443 1442 1442 1443 1443 1444 1444 1445 1447 1449 1450 1452 1455 1457 1459 1461 1463 1465 1467
1485 1482 1473 1471 1470 1471 1472 1473 1473 1479 1481 1483 1479 1475 1471 1467 1465 1462 1460 1457 1455 1453 1450 1448 1447 1445 1444 1443 1443 1443 1443 1443 1445 1446 1447 1449 1450 1452 1454 1456 1458 1460 1462 1463
1480 1482 1475 1472 1471 1470 1472 1472 1477 1479 1480 1482 1480 1477 1476 1471 1469 1466 1463 1460 1459 1456 1454 1452 1449 1447 1446 1445 1444 1444 1444 1444 1445 1445 1446 1447 1449 1450 1452 1454 1455 1456 1458 1459
1479 1483 1480 1476 1476 1476 1474 1474 1476 1479 1479 1483 1483 1481 1473 1473 1471 1469 1467 1464 1462 1459 1457 1454 1452 1450 1448 1446 1445 1444 1444 1444 1444 1444 1445 1446 1447 1449 1450 1451 1452 1453 1454 1454
1480 1484 1484 1479 1475 1473 1473 1473 1475 1480 1482 1484 1485 1485 1473 1472 1471 1470 1468 1466 1464 1462 1459 1457 1454 1451 1449 1447 1445 1444 1444 1443 1443 1444 1444 1444 1445 1446 1447 1447 1448 1449 1449 1449
1480 1484 1489 1485 1483 1478 1475 1473 1473 1477 1483 1487 1486 1484 1474 1473 1472 1471 1470 1468 1466 1464 1461 1459 1456 1453 1451 1448 1446 1445 1444 1443 1443 1443 1443 1443 1443 1444 1444 1445 1445 1445 1445 1445
1479 1485 1489 1487 1483 1480 1478 1475 1474 1477 1484 1484 1482 1479 1476 1474 1473 1472 1471 1469 1468 1466 1464 1461 1459 1456 1453 1450 1448 1446 1444 1443 1442 1442 1442 1441 1442 1442 1442 1442 1442 1442 1441 1441
1480 1485 1483 1482 1479 1477 1477 1475 1474 1476 1477 1480 1477 1476 1474 1473 1473 1472 1471 1470 1469 1467 1465 1463 1460 1458 1455 1452 1450 1448 1446 1444 1443 1442 1441 1441 1441 1441 1441 1440 1439 1439 1438 1438
1481 1484 1483 1483 1478 1477 1476 1474 1473 1473 1473 1475 1475 1475 1472 1472 1472 1472 1472 1471 1469 1468 1466 1464 1461 1459 1457 1454 1452 1450 1448 1446 1444 1443 1442 1442 1441 1440 1440 1439 1438 1437 1436 1436
1484 1484 1487 1488 1482 1480 1479 1473 1472 1471 1470 1471 1473 1472 1471 1472 1472 1472 1471 1471 1470 1468 1467 1465 1463 1461 1458 1456 1454 1452 1450 1448 1446 1445 1444 1443 1442 1441 1439 1438 1437 1435 1434 1433
1484 1486 1490 1490 1487 1484 1476 1467 1467 1468 1467 1467 1467 1468 1469 1470 1471 1471 1471 1471 1470 1469 1467 1466 1464 1462 1460 1458 1456 1454 1452 1450 1448 1446 1445 1443 1442 1440 1439 1437 1436 1434 1433 1431
1482 1485 1490 1492 1491 1483 1471 1466 1466 1468 1467 1464 1465 1466 1468 1469 1471 1471 1471 1470 1469 1469 1468 1466 1465 1463 1461 1459 1457 1455 1453 1451 1449 1447 1446 1444 1442 1440 1438 1436 1435 1433 1432 1430
1482 1485 1490 1491 1488 1481 1468 1464 1463 1467 1468 1462 1462 1464 1466 1468 1472 1471 1469 1469 1469 1468 1467 1466 1465 1463 1461 1459 1458 1456 1453 1451 1449 1448 1446 1444 1442 1440 1438 1436 1434 1432 1430 1428
1485 1487 1490 1490 1489 1479 1465 1463 1465 1473 1465 1458 1459 1460 1463 1464 1465 1466 1467 1467 1467 1467 1466 1465 1464 1463 1461 1459 1457 1455 1453 1451 1450 1448 1445 1443 1441 1439 1437 1435 1433 1430 1428 1426
1483 1487 1487 1488 1487 1477 1460 1461 1464 1461 1456 1456 1457 1458 1460 1461 1462 1464 1465 1465 1466 1465 1465 1464 1463 1462 1461 1459 1457 1455 1453 1451 1449 1447 1445 1443 1441 1438 1436 1434 1431 1429 1426 1424
1478 1476 1476 1476 1469 1459 1456 1455 1455 1455 1455 1455 1456 1457 1458 1459 1461 1462 1463 1463 1464 1464 1463 1463 1462 1461 1460 1458 1456 1454 1453 1451 1449 1446 1444 1442 1440 1438 1435 1432 1430 1427 1425 1422
1470 1467 1469 1467 1459 1455 1453 1453 1453 1453 1453 1454 1455 1456 1457 1457 1459 1460 1461 1461 1461 1462 1462 1461 1460 1459 1458 1457 1455 1454 1452 1450 1447 1445 1443 1441 1439 1436 1434 1431 1429 1426 1423 1420
1465 1464 1464 1461 1454 1451 1449 1449 1449 1451 1451 1452 1453 1454 1455 1456 1457 1458 1458 1459 1459 1459 1459 1459 1458 1457 1456 1455 1454 1452 1450 1448 1446 1444 1441 1439 1437 1434 1432 1430 1427 1424 1422 1420
1456 1456 1458 1453 1447 1447 1445 1445 1446 1447 1448 1449 1450 1451 1453 1454 1454 1455 1455 1456 1456 1457 1457 1456 1456 1455 1454 1453 1451 1450 1448 1446 1444 1441 1439 1437 1435 1432 1430 1427 1425 1423 1421 1418